TimePDT,TemperatureF,Dew PointF,Humidity,Sea Level PressureIn,VisibilityMPH,Wind Direction,Wind SpeedMPH,Gust SpeedMPH,PrecipitationIn,Events,Conditions,WindDirDegrees,DateUTC
12:50 AM,66.2,55.4,68,29.90,10.0,West,5.8,-,N/A,Thunderstorm,Overcast,260,2013-09-06 07:50:00
12:53 AM,66.0,55.9,70,29.88,10.0,SSW,4.6,-,N/A,Thunderstorm,Thunderstorm,210,2013-09-06 07:53:00
1:15 AM,62.6,57.2,82,29.89,10.0,Calm,Calm,-,0.05,Rain,Light Rain,0,2013-09-06 08:15:00
1:53 AM,60.1,57.9,93,29.89,10.0,South,4.6,-,0.05,,Clear,180,2013-09-06 08:53:00
2:53 AM,60.1,57.9,93,29.91,10.0,Calm,Calm,-,N/A,,Clear,0,2013-09-06 09:53:00
3:53 AM,60.1,57.0,90,29.92,10.0,ENE,4.6,-,N/A,,Clear,70,2013-09-06 10:53:00
4:53 AM,57.0,55.0,93,29.93,10.0,East,4.6,-,N/A,,Clear,90,2013-09-06 11:53:00
5:28 AM,57.2,55.4,94,29.96,10.0,ENE,4.6,-,N/A,,Scattered Clouds,70,2013-09-06 12:28:00
5:45 AM,57.2,55.4,94,29.97,10.0,ENE,5.8,-,N/A,,Mostly Cloudy,60,2013-09-06 12:45:00
5:53 AM,57.0,55.0,93,29.95,10.0,ENE,4.6,-,N/A,,Overcast,60,2013-09-06 12:53:00
6:30 AM,55.4,53.6,94,29.98,10.0,NE,5.8,-,N/A,,Overcast,40,2013-09-06 13:30:00
6:53 AM,55.9,54.0,93,29.98,9.0,NE,5.8,-,N/A,,Overcast,50,2013-09-06 13:53:00
7:38 AM,57.2,53.6,88,30.01,10.0,East,4.6,-,N/A,,Overcast,80,2013-09-06 14:38:00
7:53 AM,57.0,54.0,89,29.99,10.0,NE,4.6,-,N/A,,Overcast,40,2013-09-06 14:53:00
8:53 AM,57.9,54.0,87,30.01,10.0,NE,3.5,-,N/A,,Overcast,40,2013-09-06 15:53:00
9:04 AM,57.2,53.6,88,30.01,10.0,ENE,3.5,-,N/A,,Overcast,60,2013-09-06 16:04:00
9:53 AM,60.1,53.1,78,30.01,10.0,Calm,Calm,-,N/A,,Overcast,0,2013-09-06 16:53:00
10:14 AM,60.8,53.6,77,30.02,10.0,North,4.6,-,N/A,,Overcast,360,2013-09-06 17:14:00
10:53 AM,61.0,54.0,78,30.02,10.0,North,6.9,-,N/A,,Overcast,350,2013-09-06 17:53:00
11:33 AM,62.6,53.6,72,30.04,10.0,NNW,4.6,-,N/A,,Overcast,340,2013-09-06 18:33:00
11:43 AM,62.6,53.6,72,30.03,10.0,NNW,4.6,-,N/A,,Overcast,330,2013-09-06 18:43:00
11:53 AM,62.1,54.0,75,30.02,10.0,NNW,4.6,-,N/A,,Overcast,340,2013-09-06 18:53:00
12:53 PM,64.0,54.0,70,30.02,10.0,Calm,Calm,-,N/A,Thunderstorm,Overcast,0,2013-09-06 19:53:00
1:05 PM,64.4,55.4,73,30.04,10.0,South,3.5,-,0.00,Rain,Light Rain,190,2013-09-06 20:05:00
1:35 PM,62.6,59.0,88,30.05,7.0,South,9.2,-,0.01,Rain,Light Rain,190,2013-09-06 20:35:00
1:45 PM,62.6,57.2,82,30.05,8.0,South,10.4,-,0.02,Rain,Light Rain,180,2013-09-06 20:45:00
1:53 PM,62.1,57.9,86,30.05,10.0,South,9.2,-,0.02,Rain,Light Rain,190,2013-09-06 20:53:00
2:42 PM,64.4,57.2,77,30.05,10.0,South,8.1,-,0.00,,Overcast,180,2013-09-06 21:42:00
2:53 PM,66.0,57.0,73,30.05,10.0,SSE,5.8,-,0.00,,Overcast,160,2013-09-06 21:53:00
3:31 PM,64.4,55.4,73,30.04,10.0,South,5.8,-,N/A,,Mostly Cloudy,180,2013-09-06 22:31:00
3:40 PM,66.2,53.6,64,30.04,10.0,South,5.8,-,N/A,,Mostly Cloudy,170,2013-09-06 22:40:00
3:53 PM,66.0,54.0,65,30.04,10.0,WSW,5.8,-,N/A,,Mostly Cloudy,240,2013-09-06 22:53:00
4:25 PM,66.2,53.6,64,30.04,10.0,Variable,3.5,-,N/A,,Mostly Cloudy,0,2013-09-06 23:25:00
4:53 PM,66.9,53.1,61,30.04,10.0,SSE,4.6,-,N/A,,Mostly Cloudy,150,2013-09-06 23:53:00
5:53 PM,66.0,55.9,70,30.04,10.0,SE,6.9,-,0.00,Rain,Light Rain,140,2013-09-07 00:53:00
6:23 PM,64.4,55.4,73,30.05,10.0,East,5.8,-,0.00,,Overcast,100,2013-09-07 01:23:00
6:53 PM,64.9,55.0,70,30.06,10.0,East,4.6,-,0.00,,Mostly Cloudy,80,2013-09-07 01:53:00
7:15 PM,62.6,55.4,77,30.06,10.0,East,5.8,-,N/A,,Scattered Clouds,100,2013-09-07 02:15:00
7:53 PM,61.0,55.9,83,30.07,10.0,ESE,4.6,-,N/A,,Scattered Clouds,110,2013-09-07 02:53:00
8:44 PM,60.8,55.4,82,30.08,10.0,Calm,Calm,-,N/A,,Mostly Cloudy,0,2013-09-07 03:44:00
8:53 PM,61.0,55.9,83,30.08,10.0,Calm,Calm,-,N/A,,Overcast,0,2013-09-07 03:53:00
9:16 PM,60.8,55.4,82,30.09,10.0,Calm,Calm,-,N/A,,Scattered Clouds,0,2013-09-07 04:16:00
9:53 PM,59.0,55.9,90,30.09,10.0,North,4.6,-,N/A,,Partly Cloudy,360,2013-09-07 04:53:00
10:53 PM,59.0,55.9,90,30.10,10.0,North,4.6,-,N/A,,Mostly Cloudy,350,2013-09-07 05:53:00
11:53 PM,57.0,55.0,93,30.10,10.0,North,3.5,-,N/A,,Partly Cloudy,360,2013-09-07 06:53:00